Dobrodošli na spletni strani vremenske postaje Senovo. Vse informacije so informativnega značaja, saj vremenska postaja ni del državne mreže meteoroloških postaj. AKTUALNIH OBVESTIL NI.


Posebna pozornost v zvezi z vremenskimi dogajanji ni potrebna.    Posebna pozornost v zvezi z vremenskimi dogajanji ni potrebna.

Pogled proti Armezu več informacij Pogled proti Armezu


Lisca več informacij Lisca


Radar strel več informacij blitzortung!


Radar padavin več informacij rain snow radar


Obiščite še:

Template documentation
and downloads

And another site



Weather Underground, zgodovina - Tekstovno

Dnevni povzetek za Januar 31, 2018 Enote:  Metrično    Angleško   Obe
« Predhodni Dan
Naslednji Dan »
Dnevni Tedenski Mesečni Letni Po meri
  Višja: Nižja: Povprečje:
Temperatura: -17.8 °C -18.9 °C -15.9 °C
Točka rosišča: -17.8 °C -19.7 °C -17.1 °C
Vlažnost: Humidity % 69 % 86 %
Hitrost vetra: 0 km/h 0 km/h 3.4 km/h
Sunki vetra: 0 km/h - -
Veter:- - SW
Zračni tlak: 0 hPa 34235.8 hPa -
Padavine: 0 mm    
Historical Graphs
 
 
Tabelarni podarki za Januar 31, 2018
Čas Temperatura Točka rosišča Zračni tlak Veter Hitrost vetra Sunki vetra Vlažnost Intenziteta padavin (urna)
-17.8 °C -17.8 °C 0 hPa Calm     Humidity % 0 mm
00:03 -18.1 °C -19.1 °C 34740.4 hPa Calm     87 % 0 mm
00:08 -18.1 °C -19.1 °C 34740.4 hPa Calm     87 % 0 mm
00:13 -18.1 °C -19.2 °C 34703.1 hPa Calm     87 % 0 mm
00:18 -18.1 °C -19.2 °C 34703.1 hPa Calm     87 % 0 mm
00:23 -18.2 °C -19.2 °C 34703.1 hPa Calm     87 % 0 mm
00:28 -18.2 °C -19.2 °C 34703.1 hPa Calm     87 % 0 mm
00:33 -18.2 °C -19.3 °C 34703.1 hPa Calm     87 % 0 mm
00:38 -18.2 °C -19.3 °C 34703.1 hPa Calm     87 % 0 mm
00:43 -18.3 °C -19.3 °C 34703.1 hPa Calm     87 % 0 mm
00:48 -18.3 °C -19.3 °C 34703.1 hPa Calm     88 % 0 mm
00:53 -18.3 °C -19.3 °C 34703.1 hPa Calm     88 % 0 mm
00:58 -18.3 °C -19.3 °C 34669.3 hPa Calm     88 % 0 mm
01:03 -18.3 °C -19.3 °C 34669.3 hPa Calm     88 % 0 mm
01:09 -18.4 °C -19.3 °C 34669.3 hPa Calm     88 % 0 mm
01:14 -18.4 °C -19.3 °C 34669.3 hPa Calm     88 % 0 mm
01:19 -18.4 °C -19.3 °C 34669.3 hPa Calm     88 % 0 mm
01:24 -18.3 °C -19.3 °C 34669.3 hPa Calm     88 % 0 mm
01:29 -18.4 °C -19.3 °C 34669.3 hPa Calm     88 % 0 mm
01:34 -18.4 °C -19.4 °C 34669.3 hPa Calm     88 % 0 mm
01:39 -18.4 °C -19.4 °C 34669.3 hPa Calm     88 % 0 mm
01:44 -18.5 °C -19.5 °C 34669.3 hPa Calm     88 % 0 mm
01:49 -18.5 °C -19.5 °C 34669.3 hPa Calm     88 % 0 mm
01:54 -18.6 °C -19.5 °C 34669.3 hPa Calm     88 % 0 mm
01:59 -18.6 °C -19.5 °C 34669.3 hPa Calm     88 % 0 mm
02:04 -18.6 °C -19.4 °C 34669.3 hPa Calm     89 % 0 mm
02:09 -18.6 °C -19.4 °C 34669.3 hPa Calm     89 % 0 mm
02:14 -18.6 °C -19.4 °C 34669.3 hPa Calm     89 % 0 mm
02:19 -18.6 °C -19.5 °C 34669.3 hPa Calm     89 % 0 mm
02:24 -18.6 °C -19.4 °C 34669.3 hPa Calm     89 % 0 mm
02:29 -18.6 °C -19.5 °C 34669.3 hPa Calm     89 % 0 mm
02:34 -18.6 °C -19.5 °C 34669.3 hPa Calm     89 % 0 mm
02:39 -18.7 °C -19.6 °C 34669.3 hPa Calm     89 % 0 mm
02:44 -18.7 °C -19.6 °C 34635.4 hPa Calm     89 % 0 mm
02:49 -18.7 °C -19.6 °C 34635.4 hPa Calm     89 % 0 mm
02:54 -18.7 °C -19.6 °C 34635.4 hPa Calm     89 % 0 mm
02:59 -18.7 °C -19.6 °C 34635.4 hPa Calm     89 % 0 mm
03:04 -18.8 °C -19.7 °C 34635.4 hPa Calm     89 % 0 mm
03:09 -18.8 °C -19.7 °C 34635.4 hPa Calm     89 % 0 mm
03:14 -18.8 °C -19.7 °C 34601.5 hPa Calm     89 % 0 mm
03:19 -18.8 °C -19.7 °C 34601.5 hPa Calm     89 % 0 mm
03:24 -18.8 °C -19.7 °C 34601.5 hPa Calm     89 % 0 mm
03:29 -18.8 °C -19.7 °C 34601.5 hPa Calm     89 % 0 mm
03:34 -18.8 °C -19.7 °C 34601.5 hPa Calm     89 % 0 mm
03:39 -18.8 °C -19.7 °C 34601.5 hPa Calm     89 % 0 mm
03:44 -18.8 °C -19.7 °C 34635.4 hPa Calm     89 % 0 mm
03:49 -18.8 °C -19.7 °C 34635.4 hPa Calm     89 % 0 mm
03:54 -18.8 °C -19.6 °C 34635.4 hPa Calm     90 % 0 mm
03:59 -18.8 °C -19.6 °C 34635.4 hPa Calm     90 % 0 mm
04:04 -18.8 °C -19.6 °C 34635.4 hPa Calm     90 % 0 mm
04:09 -18.8 °C -19.6 °C 34635.4 hPa Calm     90 % 0 mm
04:14 -18.8 °C -19.6 °C 34635.4 hPa Calm     90 % 0 mm
04:19 -18.8 °C -19.6 °C 34635.4 hPa Calm     90 % 0 mm
04:24 -18.8 °C -19.6 °C 34635.4 hPa Calm     90 % 0 mm
04:29 -18.8 °C -19.6 °C 34601.5 hPa Calm     90 % 0 mm
04:34 -18.8 °C -19.6 °C 34601.5 hPa Calm     90 % 0 mm
04:39 -18.8 °C -19.6 °C 34601.5 hPa Calm     90 % 0 mm
04:44 -18.8 °C -19.6 °C 34635.4 hPa Calm     90 % 0 mm
04:49 -18.8 °C -19.6 °C 34635.4 hPa Calm     90 % 0 mm
04:54 -18.9 °C -19.7 °C 34635.4 hPa Calm     90 % 0 mm
04:59 -18.9 °C -19.7 °C 34635.4 hPa Calm     90 % 0 mm
05:04 -18.9 °C -19.7 °C 34635.4 hPa Calm     90 % 0 mm
05:09 -18.9 °C -19.6 °C 34635.4 hPa Calm     91 % 0 mm
05:14 -18.9 °C -19.6 °C 34601.5 hPa Calm     91 % 0 mm
05:19 -18.9 °C -19.6 °C 34601.5 hPa Calm     91 % 0 mm
05:24 -18.8 °C -19.6 °C 34601.5 hPa Calm     90 % 0 mm
05:29 -18.8 °C -19.6 °C 34601.5 hPa Calm     90 % 0 mm
05:34 -18.7 °C -19.4 °C 34601.5 hPa Calm     91 % 0 mm
05:39 -18.6 °C -19.3 °C 34601.5 hPa Calm     91 % 0 mm
05:44 -18.6 °C -19.3 °C 34567.7 hPa Calm     91 % 0 mm
05:49 -18.6 °C -19.3 °C 34567.7 hPa Calm     91 % 0 mm
05:54 -18.5 °C -19.2 °C 34567.7 hPa Calm     91 % 0 mm
05:59 -18.4 °C -19.2 °C 34567.7 hPa Calm     91 % 0 mm
06:04 -18.4 °C -19 °C 34567.7 hPa Calm     92 % 0 mm
06:09 -18.3 °C -18.9 °C 34567.7 hPa Calm     92 % 0 mm
06:14 -18.3 °C -19 °C 34567.7 hPa Calm     91 % 0 mm
06:19 -18.3 °C -18.9 °C 34567.7 hPa Calm     92 % 0 mm
06:24 -18.2 °C -18.8 °C 34567.7 hPa Calm     92 % 0 mm
06:29 -18.1 °C -18.7 °C 34567.7 hPa Calm     92 % 0 mm
06:34 -18.1 °C -18.7 °C 34567.7 hPa SW 0.3 km/h 5.1 km/h 92 % 0 mm
06:39 -18 °C -18.7 °C 34567.7 hPa SW 0.3 km/h 5.1 km/h 92 % 0 mm
06:44 -18 °C -18.7 °C 34567.7 hPa Calm     92 % 0 mm
06:49 -17.9 °C -18.6 °C 34567.7 hPa Calm     92 % 0 mm
06:54 -17.9 °C -18.5 °C 34567.7 hPa Calm     92 % 0 mm
06:59 -17.9 °C -18.4 °C 34567.7 hPa Calm     93 % 0 mm
07:04 -17.8 °C -18.4 °C 34567.7 hPa Calm     93 % 0 mm
07:09 -17.8 °C -18.3 °C 34567.7 hPa Calm     93 % 0 mm
07:14 -17.8 °C -18.3 °C 34567.7 hPa Calm     93 % 0 mm
07:19 -17.7 °C -18.3 °C 34567.7 hPa Calm     93 % 0 mm
07:24 -17.7 °C -18.3 °C 34567.7 hPa Calm     93 % 0 mm
07:29 -17.7 °C -18.3 °C 34567.7 hPa Calm     93 % 0 mm
07:34 -17.7 °C -18.2 °C 34567.7 hPa Calm     93 % 0 mm
07:39 -17.6 °C -18.2 °C 34567.7 hPa Calm     93 % 0 mm
07:44 -17.6 °C -18.2 °C 34567.7 hPa Calm     93 % 0 mm
07:49 -17.6 °C -18.2 °C 34567.7 hPa Calm     93 % 0 mm
07:54 -17.6 °C -18 °C 34567.7 hPa Calm     94 % 0 mm
07:59 -17.6 °C -18 °C 34601.5 hPa Calm     94 % 0 mm
08:04 -17.5 °C -17.9 °C 34601.5 hPa Calm     94 % 0 mm
08:09 -17.5 °C -17.9 °C 34601.5 hPa Calm     94 % 0 mm
08:14 -17.4 °C -17.9 °C 34567.7 hPa Calm     94 % 0 mm
08:19 -17.4 °C -17.9 °C 34567.7 hPa Calm     94 % 0 mm
08:24 -17.4 °C -17.9 °C 34567.7 hPa Calm     94 % 0 mm
08:29 -17.4 °C -17.9 °C 34567.7 hPa Calm     94 % 0 mm
08:34 -17.3 °C -17.8 °C 34567.7 hPa Calm     94 % 0 mm
08:39 -17.3 °C -17.7 °C 34567.7 hPa Calm     94 % 0 mm
08:44 -17.3 °C -17.7 °C 34567.7 hPa Calm     94 % 0 mm
08:49 -17.2 °C -17.7 °C 34567.7 hPa Calm     94 % 0 mm
08:54 -17.2 °C -17.7 °C 34567.7 hPa Calm     94 % 0 mm
08:59 -17.2 °C -17.7 °C 34567.7 hPa Calm     94 % 0 mm
09:04 -17.2 °C -17.7 °C 34567.7 hPa Calm   2.3 km/h 94 % 0 mm
09:09 -17.1 °C -17.6 °C 34567.7 hPa Calm   2.3 km/h 94 % 0 mm
09:14 -17.1 °C -17.6 °C 34567.7 hPa Calm     94 % 0 mm
09:19 -17.1 °C -17.6 °C 34567.7 hPa Calm     94 % 0 mm
09:24 -16.9 °C -17.3 °C 34567.7 hPa Calm     95 % 0 mm
09:29 -16.9 °C -17.3 °C 34567.7 hPa Calm     95 % 0 mm
09:34 -16.9 °C -17.3 °C 34567.7 hPa Calm     95 % 0 mm
09:39 -16.8 °C -17.2 °C 34567.7 hPa Calm     95 % 0 mm
09:44 -16.8 °C -17.2 °C 34533.8 hPa Calm     95 % 0 mm
09:49 -16.7 °C -17.1 °C 34533.8 hPa Calm     95 % 0 mm
09:54 -16.7 °C -17.1 °C 34533.8 hPa Calm     95 % 0 mm
09:59 -16.6 °C -17 °C 34567.7 hPa Calm     95 % 0 mm
10:04 -16.6 °C -17 °C 34567.7 hPa Calm     95 % 0 mm
10:09 -16.6 °C -16.9 °C 34567.7 hPa Calm     95 % 0 mm
10:14 -16.5 °C -16.9 °C 34533.8 hPa Calm     95 % 0 mm
10:19 -16.4 °C -16.8 °C 34533.8 hPa Calm     95 % 0 mm
10:24 -16.4 °C -16.8 °C 34533.8 hPa Calm     95 % 0 mm
10:29 -16.4 °C -16.8 °C 34567.7 hPa Calm     95 % 0 mm
10:34 -16.3 °C -16.7 °C 34567.7 hPa Calm     95 % 0 mm
10:39 -16.2 °C -16.6 °C 34567.7 hPa Calm     95 % 0 mm
10:44 -16.2 °C -16.6 °C 34567.7 hPa Calm     95 % 0 mm
10:49 -16.1 °C -16.4 °C 34567.7 hPa Calm     95 % 0 mm
10:54 -15.9 °C -16.3 °C 34567.7 hPa Calm     95 % 0 mm
10:59 -15.9 °C -16.3 °C 34567.7 hPa Calm     95 % 0 mm
11:04 -15.8 °C -16.2 °C 34567.7 hPa Calm     95 % 0 mm
11:09 -15.7 °C -16.1 °C 34567.7 hPa Calm     96 % 0 mm
11:14 -15.7 °C -16 °C 34567.7 hPa Calm     96 % 0 mm
11:19 -15.6 °C -15.9 °C 34567.7 hPa SE 0.5 km/h 6.4 km/h 96 % 0 mm
11:24 -15.6 °C -15.9 °C 34567.7 hPa SE 1.3 km/h 6.4 km/h 95 % 0 mm
11:29 -15.5 °C -15.9 °C 34567.7 hPa SE 0.5 km/h 4.2 km/h 95 % 0 mm
11:34 -15.4 °C -15.9 °C 34567.7 hPa Calm     95 % 0 mm
11:39 -15.4 °C -15.7 °C 34567.7 hPa Calm     96 % 0 mm
11:44 -15.3 °C -15.7 °C 34533.8 hPa Calm     96 % 0 mm
11:49 -15.3 °C -15.6 °C 34533.8 hPa Calm     96 % 0 mm
11:54 -15.2 °C -15.6 °C 34533.8 hPa Calm     96 % 0 mm
11:59 -15.2 °C -15.5 °C 34533.8 hPa Calm     96 % 0 mm
12:04 -15.1 °C -15.4 °C 34533.8 hPa Calm     96 % 0 mm
12:09 -15 °C -15.4 °C 34533.8 hPa Calm     95 % 0 mm
12:14 -14.9 °C -15.3 °C 34496.6 hPa Calm     95 % 0 mm
12:19 -14.8 °C -15.2 °C 34496.6 hPa Calm     95 % 0 mm
12:24 -14.8 °C -15.2 °C 34496.6 hPa Calm     95 % 0 mm
12:29 -14.7 °C -15.1 °C 34496.6 hPa Calm     95 % 0 mm
12:34 -14.6 °C -14.9 °C 34496.6 hPa Calm     96 % 0 mm
12:39 -14.4 °C -14.8 °C 34496.6 hPa ESE 0.5 km/h 6.4 km/h 95 % 0 mm
12:44 -14.3 °C -14.8 °C 34496.6 hPa ESE 1.8 km/h 6.4 km/h 95 % 0 mm
12:49 -14.2 °C -14.6 °C 34496.6 hPa ESE 1.6 km/h 5.1 km/h 95 % 0 mm
12:54 -14.2 °C -14.6 °C 34496.6 hPa SSE 2.6 km/h 11.1 km/h 95 % 0 mm
12:59 -14.1 °C -14.5 °C 34496.6 hPa SSE 4.3 km/h 11.1 km/h 95 % 0 mm
13:04 -14 °C -14.4 °C 34496.6 hPa SSE 6 km/h 11.1 km/h 95 % 0 mm
13:09 -13.9 °C -14.3 °C 34496.6 hPa SSE 7.7 km/h 11.1 km/h 95 % 0 mm
13:14 -13.9 °C -14.3 °C 34476.3 hPa SSE 6.9 km/h 9.8 km/h 95 % 0 mm
13:19 -13.8 °C -14.3 °C 34476.3 hPa SSE 6.8 km/h 9.8 km/h 95 % 0 mm
13:24 -13.8 °C -14.2 °C 34476.3 hPa SSE 6.4 km/h 8.9 km/h 95 % 0 mm
13:29 -13.7 °C -14.1 °C 34476.3 hPa SSE 5.6 km/h 8.9 km/h 95 % 0 mm
13:34 -13.7 °C -14.1 °C 34476.3 hPa SSE 6.3 km/h 10.3 km/h 95 % 0 mm
13:39 -13.6 °C -14 °C 34476.3 hPa SSE 7.6 km/h 11.6 km/h 95 % 0 mm
13:44 -13.6 °C -14.1 °C 34428.8 hPa SSE 7.7 km/h 11.6 km/h 94 % 0 mm
13:49 -13.6 °C -14.1 °C 34428.8 hPa SE 8 km/h 14 km/h 94 % 0 mm
13:54 -13.5 °C -14 °C 34428.8 hPa SE 8.5 km/h 14 km/h 94 % 0 mm
13:59 -13.5 °C -14 °C 34405.1 hPa SE 8 km/h 12.7 km/h 94 % 0 mm
14:04 -13.4 °C -13.9 °C 34405.1 hPa SSE 6 km/h 11.1 km/h 94 % 0 mm
14:09 -13.4 °C -13.9 °C 34405.1 hPa South 5.1 km/h 16.3 km/h 94 % 0 mm
14:14 -13.3 °C -13.9 °C 34476.3 hPa SSW 6.4 km/h 16.3 km/h 93 % 0 mm
14:19 -13.3 °C -13.8 °C 34476.3 hPa SSW 7.2 km/h 14 km/h 93 % 0 mm
14:24 -13.2 °C -13.8 °C 34476.3 hPa SW 8 km/h 14 km/h 93 % 0 mm
14:29 -13.2 °C -13.9 °C 34476.3 hPa SW 7.7 km/h 14 km/h 92 % 0 mm
14:34 -13.2 °C -13.9 °C 34476.3 hPa WSW 6.4 km/h 14 km/h 91 % 0 mm
14:39 -13.2 °C -13.9 °C 34476.3 hPa West 8.2 km/h 14.5 km/h 91 % 0 mm
14:44 -13.1 °C -14 °C 34428.8 hPa West 9.3 km/h 15 km/h 90 % 0 mm
14:49 -13.1 °C -14.1 °C 34428.8 hPa WSW 12.2 km/h 26.2 km/h 89 % 0 mm
14:54 -13.1 °C -14.2 °C 34428.8 hPa WSW 15.3 km/h 28.5 km/h 88 % 0 mm
14:59 -13.1 °C -14.3 °C 34428.8 hPa West 10.6 km/h 28.5 km/h 86 % 0 mm
15:04 -13.1 °C -14.4 °C 34428.8 hPa WNW 8 km/h 26.2 km/h 85 % 0 mm
15:09 -13.1 °C -14.5 °C 34428.8 hPa WSW 10.1 km/h 26.2 km/h 84 % 0 mm
15:14 -13.1 °C -14.7 °C 34405.1 hPa WSW 11.6 km/h 24.8 km/h 82 % 0 mm
15:19 -13.1 °C -14.8 °C 34405.1 hPa WSW 12.9 km/h 33.2 km/h 81 % 0 mm
15:24 -13.1 °C -14.9 °C 34405.1 hPa WSW 13.2 km/h 33.2 km/h 80 % 0 mm
15:29 -13.1 °C -14.9 °C 34405.1 hPa WSW 11.6 km/h 22 km/h 79 % 0 mm
15:34 -13.1 °C -15.2 °C 34405.1 hPa West 12.4 km/h 22.5 km/h 77 % 0 mm
15:39 -13.1 °C -15.3 °C 34405.1 hPa WSW 12.9 km/h 22.5 km/h 76 % 0 mm
15:44 -13.1 °C -15.4 °C 34405.1 hPa WSW 10.6 km/h 24.8 km/h 75 % 0 mm
15:49 -13.1 °C -15.4 °C 34405.1 hPa West 10.6 km/h 28.5 km/h 75 % 0 mm
15:54 -13.1 °C -15.5 °C 34405.1 hPa WSW 9.7 km/h 28.5 km/h 74 % 0 mm
15:59 -13.1 °C -15.7 °C 34405.1 hPa West 8.9 km/h 27.7 km/h 73 % 0 mm
16:04 -13.1 °C -15.7 °C 34405.1 hPa West 11.4 km/h 27.7 km/h 73 % 0 mm
16:09 -13.2 °C -15.8 °C 34405.1 hPa West 10.6 km/h 20.9 km/h 72 % 0 mm
16:14 -13.2 °C -15.8 °C 34371.3 hPa West 10.9 km/h 19.2 km/h 72 % 0 mm
16:19 -13.2 °C -15.9 °C 34371.3 hPa West 12.2 km/h 22.5 km/h 71 % 0 mm
16:24 -13.2 °C -15.9 °C 34371.3 hPa WNW 10.3 km/h 22.5 km/h 71 % 0 mm
16:29 -13.2 °C -15.9 °C 34371.3 hPa West 10.3 km/h 20.3 km/h 71 % 0 mm
16:34 -13.2 °C -16.1 °C 34371.3 hPa West 10.3 km/h 23.8 km/h 70 % 0 mm
16:39 -13.2 °C -16.1 °C 34371.3 hPa West 9.7 km/h 23.8 km/h 70 % 0 mm
16:44 -13.2 °C -16.1 °C 34371.3 hPa West 9.3 km/h 22.5 km/h 70 % 0 mm
16:49 -13.2 °C -16.1 °C 34371.3 hPa West 8.2 km/h 18.7 km/h 70 % 0 mm
16:54 -13.3 °C -16.2 °C 34371.3 hPa WSW 9.7 km/h 18.7 km/h 70 % 0 mm
16:59 -13.3 °C -16.3 °C 34371.3 hPa WSW 8.5 km/h 17.4 km/h 69 % 0 mm
17:04 -13.3 °C -16.3 °C 34371.3 hPa WSW 6 km/h 11.1 km/h 69 % 0 mm
17:09 -13.4 °C -16.2 °C 34371.3 hPa SSW 4.3 km/h 11.1 km/h 70 % 0 mm
17:14 -13.4 °C -16.2 °C 34371.3 hPa SW 5.5 km/h 16.3 km/h 70 % 0 mm
17:19 -13.4 °C -16.3 °C 34371.3 hPa SW 7.7 km/h 16.3 km/h 70 % 0 mm
17:24 -13.5 °C -16.3 °C 34371.3 hPa SW 7.7 km/h 14.5 km/h 70 % 0 mm
17:29 -13.6 °C -16.4 °C 34371.3 hPa WSW 7.2 km/h 14.5 km/h 70 % 0 mm
17:34 -13.6 °C -16.4 °C 34371.3 hPa WSW 6.4 km/h 14.5 km/h 70 % 0 mm
17:39 -13.7 °C -16.5 °C 34371.3 hPa WSW 6 km/h 11.1 km/h 70 % 0 mm
17:44 -13.8 °C -16.6 °C 34405.1 hPa WSW 5.5 km/h 12.7 km/h 70 % 0 mm
17:49 -13.9 °C -16.7 °C 34405.1 hPa SW 6.3 km/h 12.7 km/h 70 % 0 mm
17:54 -14 °C -16.8 °C 34405.1 hPa SW 5.5 km/h 11.1 km/h 70 % 0 mm
17:59 -14.1 °C -16.9 °C 34371.3 hPa SW 3.7 km/h 7.6 km/h 70 % 0 mm
18:01 -14.1 °C -16.9 °C 34371.3 hPa WSW 2.6 km/h 7.6 km/h 70 % 0 mm
18:06 -14.2 °C -16.9 °C 34371.3 hPa SW 3.7 km/h 14.5 km/h 71 % 0 mm
18:11 -14.2 °C -16.9 °C 34371.3 hPa SW 6.9 km/h 14.5 km/h 71 % 0 mm
18:16 -14.2 °C -16.9 °C 34371.3 hPa SW 7.2 km/h 14 km/h 71 % 0 mm
18:21 -14.2 °C -16.8 °C 34371.3 hPa SW 6.4 km/h 10.3 km/h 72 % 0 mm
18:26 -14.2 °C -16.8 °C 34371.3 hPa SW 7.6 km/h 16.9 km/h 72 % 0 mm
18:31 -14.2 °C -16.8 °C 34371.3 hPa SW 7.6 km/h 16.9 km/h 72 % 0 mm
18:36 -14.2 °C -16.8 °C 34371.3 hPa SSW 7.2 km/h 11.1 km/h 72 % 0 mm
18:41 -14.3 °C -16.8 °C 34337.4 hPa SSW 8 km/h 15.6 km/h 73 % 0 mm
18:46 -14.2 °C -16.7 °C 34337.4 hPa SW 8 km/h 15.6 km/h 73 % 0 mm
18:51 -14.2 °C -16.7 °C 34337.4 hPa SSW 8.9 km/h 16.3 km/h 73 % 0 mm
18:56 -14.2 °C -16.6 °C 34337.4 hPa SSW 8.5 km/h 16.3 km/h 74 % 0 mm
19:01 -14.2 °C -16.6 °C 34337.4 hPa SW 7.7 km/h 14 km/h 74 % 0 mm
19:06 -14.2 °C -16.6 °C 34337.4 hPa SSW 6.8 km/h 11.1 km/h 74 % 0 mm
19:11 -14.2 °C -16.6 °C 34337.4 hPa SW 4.7 km/h 10.3 km/h 74 % 0 mm
19:16 -14.2 °C -16.6 °C 34337.4 hPa WSW 3.4 km/h 9.3 km/h 74 % 0 mm
19:21 -14.2 °C -16.5 °C 34337.4 hPa SW 5.5 km/h 14 km/h 75 % 0 mm
19:26 -14.2 °C -16.5 °C 34337.4 hPa SW 7.6 km/h 14 km/h 75 % 0 mm
19:31 -14.2 °C -16.5 °C 34337.4 hPa SW 4.3 km/h 10.3 km/h 75 % 0 mm
19:36 -14.2 °C -16.5 °C 34337.4 hPa SW 3.1 km/h 11.1 km/h 75 % 0 mm
19:41 -14.2 °C -16.5 °C 34303.6 hPa SW 5.1 km/h 12.7 km/h 75 % 0 mm
19:46 -14.3 °C -16.6 °C 34303.6 hPa SW 6 km/h 14.5 km/h 75 % 0 mm
19:51 -14.3 °C -16.4 °C 34303.6 hPa SW 5.5 km/h 14.5 km/h 76 % 0 mm
19:56 -14.3 °C -16.4 °C 34303.6 hPa SW 5.5 km/h 9.3 km/h 76 % 0 mm
20:01 -14.3 °C -16.4 °C 34303.6 hPa SW 6.8 km/h 12.7 km/h 76 % 0 mm
20:06 -14.3 °C -16.4 °C 34303.6 hPa SW 7.2 km/h 12.7 km/h 76 % 0 mm
20:11 -14.3 °C -16.4 °C 34303.6 hPa SW 7.2 km/h 14 km/h 76 % 0 mm
20:16 -14.3 °C -16.4 °C 34303.6 hPa SSW 8.2 km/h 17.9 km/h 76 % 0 mm
20:21 -14.2 °C -16.4 °C 34303.6 hPa SW 8.5 km/h 17.9 km/h 76 % 0 mm
20:26 -14.2 °C -16.3 °C 34303.6 hPa SW 9 km/h 16.3 km/h 77 % 0 mm
20:31 -14.2 °C -16.3 °C 34303.6 hPa SW 8.9 km/h 15 km/h 77 % 0 mm
20:36 -14.2 °C -16.3 °C 34303.6 hPa SSW 8.2 km/h 16.3 km/h 77 % 0 mm
20:41 -14.2 °C -16.3 °C 34269.7 hPa SSW 8.2 km/h 16.3 km/h 77 % 0 mm
20:46 -14.3 °C -16.3 °C 34269.7 hPa South 6.9 km/h 11.1 km/h 77 % 0 mm
20:51 -14.3 °C -16.3 °C 34269.7 hPa SSW 6.3 km/h 10.3 km/h 77 % 0 mm
20:52 -14.3 °C -16.3 °C 34269.7 hPa SSW 6.3 km/h 10.3 km/h 77 % 0 mm
20:57 -14.3 °C -16.3 °C 34269.7 hPa SW 6 km/h 14 km/h 77 % 0 mm
21:02 -14.3 °C -16.3 °C 34269.7 hPa SW 6.8 km/h 14 km/h 77 % 0 mm
21:07 -14.2 °C -16.3 °C 34269.7 hPa SSW 6.8 km/h 11.1 km/h 77 % 0 mm
21:12 -14.2 °C -16.3 °C 34303.6 hPa SSW 6.9 km/h 14 km/h 77 % 0 mm
21:17 -14.2 °C -16.2 °C 34303.6 hPa SSW 6.9 km/h 14 km/h 78 % 0 mm
21:18 -14.2 °C -16.2 °C 34303.6 hPa SSW 6.9 km/h 14 km/h 78 % 0 mm
21:23 -14.2 °C -16.2 °C 34303.6 hPa SSW 6.3 km/h 10.3 km/h 78 % 0 mm
21:28 -14.3 °C -16.3 °C 34303.6 hPa South 5.6 km/h 9.8 km/h 78 % 0 mm
21:33 -14.4 °C -16.3 °C 34303.6 hPa South 6 km/h 11.1 km/h 78 % 0 mm
21:38 -14.4 °C -16.4 °C 34303.6 hPa SSW 3.9 km/h 11.1 km/h 77 % 0 mm
21:43 -14.5 °C -16.5 °C 34269.7 hPa SSE 0.8 km/h 5.1 km/h 78 % 0 mm
21:48 -14.7 °C -16.6 °C 34269.7 hPa WSW 1.6 km/h 6.4 km/h 78 % 0 mm
21:53 -14.8 °C -16.7 °C 34269.7 hPa SSW 3.9 km/h 14.5 km/h 78 % 0 mm
21:58 -14.8 °C -16.8 °C 34269.7 hPa SW 5 km/h 14.5 km/h 78 % 0 mm
22:03 -14.9 °C -16.8 °C 34269.7 hPa WNW 3.4 km/h 14.5 km/h 78 % 0 mm
22:08 -14.9 °C -16.8 °C 34269.7 hPa WNW 3.4 km/h 11.1 km/h 78 % 0 mm
22:13 -14.8 °C -16.7 °C 34269.7 hPa West 5.6 km/h 12.7 km/h 78 % 0 mm
22:18 -14.7 °C -16.7 °C 34269.7 hPa West 6 km/h 12.7 km/h 78 % 0 mm
22:23 -14.7 °C -16.7 °C 34269.7 hPa WNW 3.4 km/h 11.1 km/h 78 % 0 mm
22:28 -14.8 °C -16.6 °C 34269.7 hPa West 3.1 km/h 11.1 km/h 79 % 0 mm
22:33 -14.7 °C -16.6 °C 34269.7 hPa WSW 5 km/h 16.3 km/h 79 % 0 mm
22:38 -14.6 °C -16.4 °C 34269.7 hPa SW 6.8 km/h 16.3 km/h 79 % 0 mm
22:43 -14.6 °C -16.3 °C 34235.8 hPa SW 6.9 km/h 14.5 km/h 80 % 0 mm
22:48 -14.5 °C -16.3 °C 34235.8 hPa SW 6.9 km/h 12.7 km/h 80 % 0 mm
22:53 -14.4 °C -16.2 °C 34235.8 hPa SW 6.4 km/h 12.7 km/h 80 % 0 mm
23:03 -14.4 °C -16.2 °C 34235.8 hPa ESE 3.7 km/h 10.3 km/h 80 % 0 mm
23:08 -14.4 °C -16.1 °C 34235.8 hPa South 6.9 km/h 18.7 km/h 81 % 0 mm
23:13 -14.3 °C -15.9 °C 34235.8 hPa SSW 8.2 km/h 18.7 km/h 81 % 0 mm
23:18 -14.2 °C -15.8 °C 34235.8 hPa SSW 9.3 km/h 16.3 km/h 81 % 0 mm
23:23 -14.1 °C -15.7 °C 34235.8 hPa WSW 11.1 km/h 16.3 km/h 81 % 0 mm
23:28 -14.1 °C -15.7 °C 34235.8 hPa SW 9.8 km/h 15.6 km/h 82 % 0 mm
23:34 -14.1 °C -15.7 °C 34235.8 hPa SSW 7.7 km/h 19.6 km/h 82 % 0 mm
23:39 -14 °C -15.6 °C 34235.8 hPa SSW 7.7 km/h 19.6 km/h 82 % 0 mm
23:44 -14 °C -15.6 °C 34235.8 hPa SW 8.5 km/h 23 km/h 82 % 0 mm
23:49 -14 °C -15.6 °C 34235.8 hPa SW 9.8 km/h 23 km/h 82 % 0 mm
23:53 -14 °C -15.6 °C 34235.8 hPa SW 9.8 km/h 16.9 km/h 82 % 0 mm
23:59 -14 °C -15.6 °C 34235.8 hPa SSW 10.9 km/h 22 km/h 82 % 0 mm
Vremenska postaja Senovo
Podatki zbrani iz Weather Underground - 3 mb

Script developed by  Jim McMurry - jmcmurry@mwt.net Adapted for the template by  Wim van der Kuil - Leuven-Template.eu

Vremenski podatki so objavljeni na:

European Weather Network

WeatherCloud

Weather Underground

AWEKAS

HAMweather, WeatherForYou, PWS Weather

MapView

Geostik

Slovenia weather network

Oprema, ki se uporablja:

Vremenski program
Cumulus

Vremenski server
Asus

Cumulus

Asus